Showing default

NAVSTAR 57 (USA 183), 28874

Orbit data source: Space-Track

NAVSTAR 57 (USA 183), 28874 is a payload satellite owned by USAF SMC (US) in MEO that was launched on Mon, 26 Sep 2005 UTC via a DELTA 7925-9.5 launch vehicle from the Air Force Eastern Test Range (AFETR). Payload-class satellites include a variety of spacecraft equipped with specific instruments for various scientific and technological missions. These include communications satellites like Starlink; space stations such as the ISS; scientific satellites like the Hubble; Earth observation satellites from companies like Planet Labs, Umbra, and HawkEye 360; GPS; miniature CubeSats for education and research; and military/defense satellites.

Loading next visibility...
Identifier
28874, 2005-038A
Orbit
MEO
Country
Flag of USUS
Related business
Manufacturer
LM/Valley Forge
Mission
Operational Defense Navigation
Bus & Motor
SERIES 4000, STAR 37XFP
Mass
2,032 kg wet, 910 kg dry
Launch date (UTC)
2005-09-26 (21 years ago)
Launch vehicle
DELTA 7925-9.5
Launch site
Air Force Eastern Test Range (AFETR)
Object type
Payload
Rocket body
Debris
Shape & HBR
Box + 2 Pan, 9.7 m
Radar Cross Section
13.539 m², Large (>1 m²)

Expand to show TLE details & history
Last TLE update: 1 day ago

TLE from 1 day ago
0 NAVSTAR 57 (USA 183)
1 28874U 05038A   26165.34905039 -.00000025  00000-0  00000-0 0  9996
2 28874  54.8804 273.2921 0127837 296.1336  56.1489  2.00565778151778
Epoch: 2026-06-14T08:22Z
TLE epoch observation values (Epoch: 2026-06-14T08:22:37.953Z)
Latitude
-5.33298°
Longitude
-118.78688°
Altitude
19,996.525 km
Speed
3.901 km/s
True Right ascension
17h 58m 05s
True Declination
-5° 19' 28"
Sunlit
Object was in daylight at epoch
Visualization orbit readout
Latitude
Unknown
Longitude
Unknown
Altitude
Unknown
Speed
Unknown
Apparent Right ascension
Unknown
Apparent Declination
Unknown
Sunlit
N/A
Visualization observer readout
Local Sidereal Time
19:28:41
Azimuth
Unknown
Elevation
Unknown
Doppler factor
Unknown
Orbital elements
Apogee altitude
20,521.566 km
Perigee altitude
19,842.492 km
Semi-major axis
26,560.166 km
Eccentricity
0.01278
Inclination
54.8804°
RAAN
273.2921°
Arg. of periapsis
296.1336°
True anomaly
57.37631°
Mean anomaly
56.1489°
Eccentric anomaly
56.76152°
Mean motion
0.50141 °/min
Orbital period
717.97 mins
BSTAR
0
Loading maneuver chart data...
Computing Atmospheric mass density...
Loading historical data...
Loading historical data...
Loading historical data...
Loading historical data...
Loading historical data...
Loading historical data...
Loading historical data...
Other satellites on launch #38 in the year 2005 (2005-09-26 UTC)

Documentation

Showing up to 5 results
|